[[{"header":{"parameterUnit":"m.s-1","parameterCategory":1,"la1":30.2991,"la2":30.254,"lo1":-89.0895,"lo2":-89.0444,"dy":0.0017,"dx":0.0017,"nx":28,"ny":28,"refTime":"2026-02-13T03:00:00:Z","depth":0,"parameterNumber":2,"parameterNumberName":"U-component_of_WINDS"},"data":[0,0,0,0,0,0,0,0,0,0,0,0,0,0,0,0,0,0,0,0,0,0,0,0,0,0,0,0,0,0,0,0,0,0,0,0,0,0,0,0,0,0,0,0,0,0,0,0,0,0,0,0,0,0,0,0,0,0,-0.4188,-0.4188,0,-0.4146,-0.4146,-0.4146,-0.4097,-0.4096,-0.4096,-0.4095,-0.4056,-0.4056,-0.4056,0,0,0,0,0,0,0,0,0,0,0,0,0,-0.423,-0.423,-0.4188,-0.4188,-0.4187,-0.4147,-0.4146,-0.4145,-0.4097,-0.4096,-0.4096,-0.4095,-0.4056,-0.4056,-0.4056,0,0,0,0,0,0,0,0,0,0,0,0,0,-0.4203,-0.423,-0.4188,-0.4158,-0.4155,-0.4147,-0.4146,-0.4145,-0.4098,-0.4096,-0.4095,-0.4094,-0.4057,-0.4056,-0.4056,-0.4075,0,0,-0.4054,-0.4054,0,0,0,0,0,0,0,0,-0.4204,-0.4201,-0.4163,-0.416,-0.4157,-0.4126,-0.4147,-0.4122,-0.4098,-0.412,-0.4095,-0.4094,-0.4081,-0.4078,-0.4073,-0.4073,-0.4071,-0.4054,-0.4054,-0.4053,-0.4053,0,0,0,0,0,0,0,-0.4206,-0.4203,-0.4172,-0.4163,-0.4159,-0.4148,-0.4143,-0.4142,-0.4107,-0.4118,-0.4114,-0.4109,-0.4079,-0.4073,-0.4072,-0.4071,-0.4054,-0.4054,-0.4053,-0.4053,-0.4085,-0.4086,0,0,0,0,0,0,-0.4212,-0.4205,-0.4173,-0.4171,-0.4178,-0.4148,-0.4142,-0.4137,-0.4107,-0.4101,-0.411,-0.4107,-0.4075,-0.4072,-0.407,-0.4091,-0.4053,-0.4053,-0.4053,-0.4084,-0.4086,-0.4087,0,0,0,0,0,0,-0.4213,-0.421,-0.4175,-0.4187,-0.4181,-0.4149,-0.4143,-0.4137,-0.4131,-0.4101,-0.4095,-0.4111,-0.4074,-0.4071,-0.4074,-0.4089,-0.4053,-0.4052,-0.4083,-0.4085,-0.4086,-0.4133,0,0,0,0,0,0,-0.4215,-0.4211,-0.4217,-0.4187,-0.4181,-0.4178,-0.4144,-0.4137,-0.413,-0.4126,-0.41,-0.4095,-0.4073,-0.4075,-0.4073,-0.4088,-0.4052,-0.4081,-0.4084,-0.4086,-0.413,-0.4137,-0.4142,0,0,0,0,0,-0.4216,-0.4232,-0.4217,-0.4214,-0.4188,-0.4179,-0.4176,-0.4149,-0.4132,-0.4138,-0.4119,-0.4096,-0.4087,-0.4076,-0.4073,-0.4088,-0.408,-0.4083,-0.4085,-0.4128,-0.4135,-0.4142,0,0,0,0,0,0,-0.4266,-0.4228,-0.4211,-0.4217,-0.4202,-0.4171,-0.4179,-0.4157,-0.4147,-0.4144,-0.4111,-0.4106,-0.4114,-0.4101,-0.4088,-0.4105,-0.4081,-0.4083,-0.4114,-0.412,-0.4126,-0.413,-0.4052,0,0,0,0,0,-0.4278,-0.4273,-0.424,-0.4249,-0.4242,-0.4212,-0.4207,-0.4187,-0.417,-0.4164,-0.4145,-0.4131,-0.4125,-0.4122,-0.4114,-0.4128,-0.4123,-0.4137,-0.4143,-0.4147,-0.415,-0.4158,-0.4164,-0.4095,-0.4095,-0.4095,0,0,-0.4302,-0.4281,-0.428,-0.4259,-0.4244,-0.4242,-0.4207,-0.4205,-0.4203,-0.4164,-0.4166,-0.4151,-0.4133,-0.4142,-0.4145,-0.4132,-0.4168,-0.4151,-0.4155,-0.4155,-0.4161,-0.4168,-0.4173,-0.4097,-0.4097,-0.4097,0,0,-0.4345,-0.4328,-0.4333,-0.4319,-0.4297,-0.4277,-0.4279,-0.4251,-0.4239,-0.424,-0.4211,-0.4209,-0.4199,-0.4187,-0.418,-0.4218,-0.4198,-0.4217,-0.4248,-0.4255,-0.4261,-0.4265,-0.428,-0.4286,-0.422,-0.422,-0.422,0,-0.4379,-0.4372,-0.434,-0.434,-0.4332,-0.4295,-0.4301,-0.429,-0.4267,-0.4264,-0.4249,-0.4235,-0.4221,-0.4227,-0.4236,-0.4231,-0.4233,-0.4221,-0.4262,-0.4266,-0.427,-0.4284,-0.429,-0.4222,-0.4222,-0.4222,-0.4222,0,-0.4414,-0.441,-0.4418,-0.4396,-0.4388,-0.4392,-0.4362,-0.4359,-0.4339,-0.4321,-0.4323,-0.4303,-0.4292,-0.4291,-0.4273,-0.4295,-0.4288,-0.4268,-0.4243,-0.428,-0.4293,-0.4298,-0.4226,-0.4225,-0.4224,-0.4224,0,0,-0.4489,-0.4448,-0.4452,-0.4441,-0.4414,-0.4411,-0.4413,-0.44,-0.4399,-0.4385,-0.4387,-0.4379,-0.436,-0.4352,-0.4332,-0.4338,-0.4371,-0.4318,-0.4317,-0.433,-0.4396,-0.4412,-0.4419,-0.4357,-0.4358,-0.4358,-0.4398,0,-0.4528,-0.4528,-0.4499,-0.4508,-0.4505,-0.4469,-0.4471,-0.4455,-0.4438,-0.4434,-0.4415,-0.441,-0.4386,-0.4381,-0.4385,-0.4367,-0.4385,-0.4363,-0.436,-0.436,-0.4367,-0.4425,-0.4442,-0.4481,-0.4403,-0.4403,-0.4404,0,-0.4574,-0.4561,-0.4569,-0.4542,-0.4539,-0.4541,-0.4528,-0.4523,-0.4505,-0.4492,-0.4483,-0.4459,-0.4461,-0.4436,-0.4438,-0.4424,-0.4421,-0.4412,-0.4413,-0.4413,-0.4386,-0.4428,-0.4492,-0.4499,-0.4411,-0.4411,-0.441,0,-0.463,-0.4614,-0.4617,-0.4609,-0.4576,-0.4579,-0.4566,-0.4546,-0.4541,-0.4529,-0.4526,-0.4515,-0.451,-0.4502,-0.4477,-0.4461,-0.4483,-0.4456,-0.4474,-0.4475,-0.4482,-0.4482,-0.4548,-0.4477,-0.4477,-0.4477,-0.4477,0,-0.4677,-0.4684,-0.4641,-0.4643,-0.465,-0.4617,-0.4625,-0.4609,-0.4592,-0.4591,-0.456,-0.456,-0.4526,-0.4523,-0.4503,-0.4509,-0.4506,-0.4497,-0.4492,-0.4501,-0.4502,-0.45,-0.4497,-0.4479,-0.4478,-0.4478,-0.4478,0,-0.4741,-0.4712,-0.4713,-0.4682,-0.4674,-0.4681,-0.4655,-0.4656,-0.4636,-0.4636,-0.4634,-0.4604,-0.4599,-0.4572,-0.4561,-0.4548,-0.4561,-0.455,-0.4567,-0.4564,-0.4585,-0.4584,-0.4653,-0.4661,-0.4584,-0.4584,-0.4585,0,-0.4774,-0.4778,-0.4747,-0.4743,-0.4731,-0.4726,-0.472,-0.4688,-0.4683,-0.4662,-0.4667,-0.4658,-0.465,-0.4644,-0.4622,-0.4614,-0.4603,-0.4627,-0.4602,-0.4611,-0.4605,-0.4606,-0.4607,-0.4634,-0.4635,-0.4636,-0.4636,0,-0.4836,-0.4822,-0.4813,-0.48,-0.4793,-0.4781,-0.4767,-0.4767,-0.4731,-0.4728,-0.4721,-0.4714,-0.4702,-0.4696,-0.4683,-0.4671,-0.4649,-0.4644,-0.4648,-0.4658,-0.4669,-0.4665,-0.4584,-0.4643,-0.4643,-0.4642,-0.4642,-0.4641,-0.4887,-0.4889,-0.4867,-0.4859,-0.4845,-0.4833,-0.4833,-0.4813,-0.4806,-0.4793,-0.4774,-0.4771,-0.4753,-0.4734,-0.4724,-0.4721,-0.4708,-0.4714,-0.4716,-0.4718,-0.4723,-0.4667,-0.4719,-0.4719,-0.4718,-0.4718,-0.4718,0,-0.4949,-0.4933,-0.4925,-0.4907,-0.49,-0.4877,-0.4861,-0.4858,-0.4855,-0.4839,-0.4831,-0.4825,-0.4817,-0.4794,-0.4785,-0.4788,-0.4778,-0.4787,-0.4787,-0.4785,-0.4734,-0.4732,-0.4796,-0.4796,-0.4796,-0.4796,-0.4796,-0.4796,-0.498,-0.4983,-0.4966,-0.4962,-0.4946,-0.4941,-0.4934,-0.4924,-0.4911,-0.4904,-0.4898,-0.4882,-0.4864,-0.4853,-0.4846,-0.484,-0.4839,-0.4852,-0.4843,-0.4796,-0.4789,-0.4782,-0.478,-0.4852,-0.4852,-0.4894,-0.4894,-0.4894]},{"header":{"parameterUnit":"m.s-1","parameterCategory":1,"la1":30.2991,"la2":30.254,"lo1":-89.0895,"lo2":-89.0444,"dy":0.0017,"dx":0.0017,"nx":28,"ny":28,"refTime":"2026-02-13T03:00:00:Z","depth":0,"parameterNumber":3,"parameterNumberName":"V-component_of_WINDS"},"data":[0,0,0,0,0,0,0,0,0,0,0,0,0,0,0,0,0,0,0,0,0,0,0,0,0,0,0,0,0,0,0,0,0,0,0,0,0,0,0,0,0,0,0,0,0,0,0,0,0,0,0,0,0,0,0,0,0,0,-0.2758,-0.2759,0,-0.2846,-0.2847,-0.2848,-0.2894,-0.2894,-0.2894,-0.2894,-0.2985,-0.2987,-0.299,0,0,0,0,0,0,0,0,0,0,0,0,0,-0.2629,-0.2631,-0.2758,-0.2759,-0.276,-0.2846,-0.2847,-0.2849,-0.2894,-0.2894,-0.2894,-0.2894,-0.2984,-0.2987,-0.299,0,0,0,0,0,0,0,0,0,0,0,0,0,-0.2698,-0.2632,-0.2757,-0.2793,-0.2797,-0.2846,-0.2847,-0.2849,-0.2894,-0.2894,-0.2894,-0.2894,-0.2983,-0.2987,-0.299,-0.3011,0,0,-0.3001,-0.3003,0,0,0,0,0,0,0,0,-0.2694,-0.2702,-0.2786,-0.279,-0.2795,-0.2859,-0.2835,-0.2903,-0.2894,-0.2857,-0.2894,-0.2894,-0.2943,-0.295,-0.2966,-0.3015,-0.3019,-0.3001,-0.3004,-0.3005,-0.3006,0,0,0,0,0,0,0,-0.2689,-0.2699,-0.2793,-0.2788,-0.2793,-0.2805,-0.2814,-0.2848,-0.2898,-0.286,-0.2863,-0.2873,-0.2945,-0.2963,-0.2969,-0.3021,-0.3001,-0.3005,-0.3007,-0.3008,-0.3093,-0.3093,0,0,0,0,0,0,-0.2678,-0.2695,-0.279,-0.2795,-0.2743,-0.2807,-0.2818,-0.2838,-0.2898,-0.2907,-0.2873,-0.2875,-0.2957,-0.2965,-0.2972,-0.3002,-0.3005,-0.3008,-0.3011,-0.3093,-0.3093,-0.3093,0,0,0,0,0,0,-0.2675,-0.2686,-0.2786,-0.2746,-0.276,-0.2809,-0.2832,-0.284,-0.2858,-0.2908,-0.2917,-0.2882,-0.2957,-0.2967,-0.3001,-0.3005,-0.301,-0.3013,-0.3093,-0.3093,-0.3093,-0.306,0,0,0,0,0,0,-0.2671,-0.2685,-0.2693,-0.2746,-0.2762,-0.2813,-0.2832,-0.2842,-0.2864,-0.2867,-0.2919,-0.2927,-0.2958,-0.2996,-0.3005,-0.301,-0.3016,-0.3093,-0.3093,-0.3093,-0.3061,-0.3059,-0.3057,0,0,0,0,0,-0.2667,-0.268,-0.2693,-0.2704,-0.2773,-0.2814,-0.2823,-0.2857,-0.2864,-0.2873,-0.2905,-0.2926,-0.3003,-0.2999,-0.301,-0.3016,-0.3092,-0.3093,-0.3093,-0.3061,-0.3059,-0.3057,0,0,0,0,0,0,-0.2626,-0.2687,-0.2703,-0.2733,-0.2768,-0.2821,-0.2833,-0.2853,-0.2887,-0.2889,-0.2931,-0.2942,-0.2972,-0.2998,-0.2992,-0.304,-0.305,-0.3052,-0.3022,-0.3021,-0.3019,-0.3012,-0.3019,0,0,0,0,0,-0.2621,-0.2649,-0.2701,-0.2723,-0.274,-0.2783,-0.2802,-0.2826,-0.2864,-0.2879,-0.2914,-0.295,-0.2982,-0.3003,-0.3036,-0.3065,-0.3077,-0.3074,-0.3073,-0.3071,-0.3072,-0.3091,-0.309,-0.3094,-0.3094,-0.3094,0,0,-0.261,-0.2647,-0.2662,-0.2716,-0.2745,-0.2774,-0.2795,-0.2824,-0.2846,-0.2883,-0.2918,-0.2945,-0.2988,-0.302,-0.3035,-0.3042,-0.3074,-0.3071,-0.3069,-0.3072,-0.3091,-0.309,-0.309,-0.3094,-0.3094,-0.3094,0,0,-0.2605,-0.2635,-0.2658,-0.2687,-0.2732,-0.2761,-0.2766,-0.2817,-0.2836,-0.2871,-0.29,-0.2927,-0.2982,-0.3012,-0.3034,-0.3041,-0.3062,-0.3051,-0.3041,-0.3059,-0.3058,-0.3058,-0.3062,-0.3062,-0.3052,-0.3052,-0.3052,0,-0.2586,-0.2629,-0.2666,-0.2694,-0.2717,-0.2753,-0.2776,-0.2803,-0.2855,-0.2871,-0.2877,-0.2948,-0.2979,-0.3019,-0.3021,-0.3038,-0.3046,-0.3045,-0.3055,-0.3056,-0.3056,-0.306,-0.3061,-0.3051,-0.3051,-0.3051,-0.3051,0,-0.2604,-0.2634,-0.2647,-0.2697,-0.2722,-0.2747,-0.2788,-0.2809,-0.2831,-0.286,-0.2896,-0.2935,-0.2977,-0.2988,-0.301,-0.3031,-0.3034,-0.3047,-0.3058,-0.3054,-0.3058,-0.3059,-0.3049,-0.3049,-0.305,-0.305,0,0,-0.2575,-0.2646,-0.265,-0.2674,-0.2727,-0.2751,-0.2778,-0.2819,-0.2836,-0.2872,-0.2896,-0.2943,-0.2956,-0.2981,-0.3006,-0.3022,-0.3026,-0.3033,-0.3035,-0.3031,-0.3053,-0.3043,-0.3044,-0.304,-0.304,-0.3041,-0.305,0,-0.2578,-0.2628,-0.2662,-0.2699,-0.2728,-0.2762,-0.2786,-0.2821,-0.2849,-0.2878,-0.2909,-0.2942,-0.2956,-0.2972,-0.2988,-0.3022,-0.3031,-0.3022,-0.3063,-0.3064,-0.3051,-0.3046,-0.3035,-0.3041,-0.3051,-0.3052,-0.3052,0,-0.2587,-0.2621,-0.2661,-0.2711,-0.2725,-0.2745,-0.2786,-0.2813,-0.2854,-0.2874,-0.2902,-0.2929,-0.296,-0.2968,-0.3012,-0.3005,-0.3024,-0.3043,-0.3045,-0.305,-0.3058,-0.3051,-0.3044,-0.3045,-0.3055,-0.3055,-0.3054,0,-0.2562,-0.2619,-0.265,-0.2669,-0.2729,-0.2743,-0.2768,-0.2809,-0.2832,-0.2868,-0.2883,-0.2922,-0.2944,-0.2974,-0.301,-0.3013,-0.3051,-0.3062,-0.3068,-0.3067,-0.3074,-0.3073,-0.3071,-0.3086,-0.3086,-0.3086,-0.3086,0,-0.2561,-0.2584,-0.264,-0.2659,-0.2686,-0.2726,-0.2752,-0.2781,-0.2817,-0.2843,-0.2876,-0.29,-0.2946,-0.2976,-0.3005,-0.3037,-0.3047,-0.3064,-0.3071,-0.3061,-0.3059,-0.3074,-0.3075,-0.3087,-0.3087,-0.3087,-0.3087,0,-0.2537,-0.2576,-0.2612,-0.2666,-0.268,-0.2697,-0.2744,-0.2764,-0.2794,-0.2827,-0.2837,-0.2884,-0.2921,-0.2961,-0.3011,-0.303,-0.3062,-0.3072,-0.3047,-0.3052,-0.3056,-0.3055,-0.3063,-0.3067,-0.3079,-0.3079,-0.3079,0,-0.2534,-0.2552,-0.2608,-0.2628,-0.2652,-0.2684,-0.2707,-0.2748,-0.2771,-0.282,-0.2835,-0.2874,-0.2908,-0.2965,-0.3005,-0.3043,-0.3055,-0.3055,-0.3061,-0.3051,-0.3056,-0.3054,-0.3057,-0.3053,-0.3053,-0.3053,-0.3052,0,-0.2524,-0.2542,-0.2575,-0.2614,-0.2642,-0.2675,-0.2709,-0.2724,-0.2772,-0.2796,-0.2834,-0.286,-0.2912,-0.2951,-0.2995,-0.3022,-0.3045,-0.305,-0.3054,-0.3044,-0.3029,-0.3037,-0.3043,-0.305,-0.305,-0.305,-0.305,-0.3051,-0.2511,-0.2529,-0.2571,-0.2607,-0.2637,-0.2669,-0.2691,-0.2724,-0.2757,-0.2802,-0.2824,-0.2863,-0.2905,-0.2966,-0.2993,-0.3024,-0.3031,-0.3036,-0.3037,-0.3038,-0.3035,-0.3024,-0.3032,-0.3032,-0.3032,-0.3032,-0.3032,0,-0.2502,-0.2532,-0.2564,-0.2611,-0.264,-0.266,-0.2699,-0.2722,-0.2755,-0.2792,-0.2825,-0.2869,-0.2907,-0.295,-0.2991,-0.3008,-0.302,-0.3017,-0.3017,-0.3023,-0.3026,-0.3019,-0.3007,-0.3007,-0.3007,-0.3007,-0.3007,-0.3007,-0.2502,-0.2534,-0.2558,-0.2606,-0.2636,-0.2673,-0.2694,-0.2724,-0.2754,-0.2802,-0.2834,-0.2862,-0.2902,-0.2946,-0.2983,-0.2995,-0.3008,-0.3003,-0.3018,-0.302,-0.3022,-0.3024,-0.3018,-0.3005,-0.3005,-0.3011,-0.3011,-0.3011]}]]